DELTA 1 R/B, 1433

Orbit data source: Space-Track

DELTA 1 R/B, 1433 is space debris in SSO originally from a launch on Fri, 02 Jul 1965 UTC launched from the Air Force Eastern Test Range (AFETR). Debris objects in space refer to the collection of defunct objects orbiting the Earth. Examples of debris include non-operational satellites, rocket bodies, and fragments generated from explosions, collisions, or faulty payload assembly.

Loading next visibility...
Identifier
1433, 1965-051B
Orbit
SSO
Country
Flag of USUS
Related business
Manufacturer
ABL
Mission
Spacecraft
Bus & Motor
ALTAIR, Unknown motor
Mass
60 kg wet, 60 kg dry
Launch date (UTC)
1965-07-02 (60 years ago)
Launch vehicle
Unknown
Launch site
Air Force Eastern Test Range (AFETR)
Object type
Payload
Rocket body
Debris
Shape & HBR
Unknown
Radar Cross Section
Medium (>0.1 m² and <1 m²)

Expand to show TLE details & history
Last TLE update: 9 hours ago

TLE from 9 hours ago
0 DELTA 1 R/B
1 01433U 65051B   25309.28485536  .00001590  00000-0  32389-3 0  9991
2 01433  98.5468  95.5990 0038201 247.6346 112.0804 14.62067331162105
Epoch: 2025-11-05T06:50Z
TLE epoch observation values (Epoch: 2025-11-05T06:50:11.503Z)
Latitude
-0°
Longitude
-51.70865°
Altitude
699.719 km
Speed
7.501 km/s
True Right ascension
06h 22m 23s
True Declination
0° 00' 00"
Sunlit
Object was in full shadow at epoch
Visualization orbit readout
Latitude
Unknown
Longitude
Unknown
Altitude
Unknown
Speed
Unknown
Apparent Right ascension
Unknown
Apparent Declination
Unknown
Sunlit
N/A
Visualization observer readout
Local Sidereal Time
12:09:13
Azimuth
Unknown
Elevation
Unknown
Doppler factor
Unknown
Orbital elements
Apogee altitude
710.578 km
Perigee altitude
656.625 km
Semi-major axis
7,061.738 km
Eccentricity
0.00382
Inclination
98.5468°
RAAN
95.599°
Arg. of periapsis
247.6346°
True anomaly
112.48532°
Mean anomaly
112.0804°
Eccentric anomaly
112.28293°
Mean motion
3.65743 °/min
Orbital period
98.43 mins
BSTAR
0.00032389
Loading maneuver chart data...
Computing Atmospheric mass density...
Loading historical data...
Loading historical data...
Loading historical data...
Loading historical data...
Loading historical data...
Loading historical data...
Loading historical data...
Other satellites on launch #51 in the year 1965 (1965-07-02 UTC)

Documentation

Showing up to 5 results
|